EZY37GY LYTV-EGKK

Flight info

Callsign EZY37GY
Flight time N/A
Altitude 36000
Route NIK DCT GACMO DCT VRANA DCT ELTIB DCT RUGOG DCT RIFEN DCT SAFFA DCT ELMUR L613 HOC DCT LUL DCT RLP DCT ROTSI DCT KOTUN DCT NINAL DCT KESAX DCT KUNAV
Aircraft A320/M-SDE2E3FGHIJ1RWXYZ/LB1

Departure

Time 2026-04-27 10:47
Airport Tivat Airport (LYTV)

Arrival

Time N/A
Airport London Gatwick Airport (EGKK)
Time Latitude Longitude Altitude Speed Heading
2026-04-27 10:15 42.41105 18.71807 19 ft 0 kts 49°
2026-04-27 10:42 42.41108 18.71824 20 ft 3 kts 92°
2026-04-27 10:42 42.41090 18.71843 19 ft 4 kts 151°
2026-04-27 10:42 42.41065 18.71861 19 ft 4 kts 158°
2026-04-27 10:42 42.41006 18.71861 19 ft 13 kts 207°
2026-04-27 10:43 42.40993 18.71848 21 ft 1 kts 216°
2026-04-27 10:43 42.40964 18.71809 20 ft 11 kts 217°
2026-04-27 10:43 42.40863 18.71835 19 ft 19 kts 141°
2026-04-27 10:43 42.40763 18.71957 19 ft 20 kts 140°
2026-04-27 10:44 42.40649 18.72088 18 ft 23 kts 138°
2026-04-27 10:44 42.40528 18.72230 20 ft 23 kts 139°
2026-04-27 10:44 42.40406 18.72374 21 ft 23 kts 139°
2026-04-27 10:44 42.40285 18.72514 23 ft 24 kts 140°
2026-04-27 10:45 42.40158 18.72665 23 ft 24 kts 139°
2026-04-27 10:45 42.40027 18.72820 21 ft 26 kts 139°
2026-04-27 10:45 42.39890 18.72979 22 ft 26 kts 139°
2026-04-27 10:45 42.39752 18.73142 23 ft 26 kts 139°
2026-04-27 10:46 42.39624 18.73260 24 ft 15 kts 139°
2026-04-27 10:46 42.39629 18.73304 25 ft 3 kts 340°
2026-04-27 10:46 42.39649 18.73283 25 ft 5 kts 320°
2026-04-27 10:46 42.39808 18.73094 23 ft 68 kts 317°
2026-04-27 10:47 42.40350 18.72457 23 ft 133 kts 315°
2026-04-27 10:47 42.41162 18.71494 197 ft 165 kts 316°
2026-04-27 10:47 42.42012 18.70499 1009 ft 160 kts 317°